Year,Month,Day,Hour,Minute,Value (Times are PST for temperature in C)
2008,09,21,00,00,12.00
2008,09,21,00,01,12.00
2008,09,21,00,02,12.00
2008,09,21,00,03,12.00
2008,09,21,00,04,12.00
2008,09,21,00,05,12.00
2008,09,21,00,06,12.00
2008,09,21,00,07,12.00
2008,09,21,00,08,12.00
2008,09,21,00,09,12.10
2008,09,21,00,10,12.10
2008,09,21,00,11,12.10
2008,09,21,00,12,12.10
2008,09,21,00,13,12.10
2008,09,21,00,14,12.10
2008,09,21,00,15,12.00
2008,09,21,00,16,12.00
2008,09,21,00,17,12.00
2008,09,21,00,18,12.00
2008,09,21,00,19,12.00
2008,09,21,00,20,12.00
2008,09,21,00,21,12.00
2008,09,21,00,22,12.00
2008,09,21,00,23,12.00
2008,09,21,00,24,12.00
2008,09,21,00,25,12.00
2008,09,21,00,26,12.00
2008,09,21,00,27,12.00
2008,09,21,00,28,12.00
2008,09,21,00,29,12.00
2008,09,21,00,30,12.00
2008,09,21,00,31,11.90
2008,09,21,00,32,11.90
2008,09,21,00,33,11.90
2008,09,21,00,34,11.90
2008,09,21,00,35,11.90
2008,09,21,00,36,11.90
2008,09,21,00,37,11.90
2008,09,21,00,38,11.90
2008,09,21,00,39,11.90
2008,09,21,00,40,12.00
2008,09,21,00,41,11.90
2008,09,21,00,42,12.00
2008,09,21,00,43,12.00
2008,09,21,00,44,12.00
2008,09,21,00,45,11.90
2008,09,21,00,46,11.90
2008,09,21,00,47,11.90
2008,09,21,00,48,11.90
2008,09,21,00,49,11.90
2008,09,21,00,50,11.90
2008,09,21,00,51,11.90
2008,09,21,00,52,11.90
2008,09,21,00,53,11.90
2008,09,21,00,54,11.90
2008,09,21,00,55,11.90
2008,09,21,00,56,11.90
2008,09,21,00,57,11.90
2008,09,21,00,58,11.90
2008,09,21,00,59,11.90
2008,09,21,01,00,11.90
2008,09,21,01,01,11.90
2008,09,21,01,02,11.90
2008,09,21,01,03,12.00
2008,09,21,01,04,12.00
2008,09,21,01,05,12.10
2008,09,21,01,06,12.10
2008,09,21,01,07,12.10
2008,09,21,01,08,12.10
2008,09,21,01,09,12.20
2008,09,21,01,10,12.20
2008,09,21,01,11,12.20
2008,09,21,01,12,12.30
2008,09,21,01,13,12.30
2008,09,21,01,14,12.30
2008,09,21,01,15,12.30
2008,09,21,01,16,12.40
2008,09,21,01,17,12.40
2008,09,21,01,18,12.40
2008,09,21,01,19,12.40
2008,09,21,01,20,12.40
2008,09,21,01,21,12.40
2008,09,21,01,22,12.40
2008,09,21,01,23,12.40
2008,09,21,01,24,12.50
2008,09,21,01,25,12.60
2008,09,21,01,26,12.60
2008,09,21,01,27,12.70
2008,09,21,01,28,12.70
2008,09,21,01,29,12.80
2008,09,21,01,30,12.90
2008,09,21,01,31,13.00
2008,09,21,01,32,13.10
2008,09,21,01,33,13.20
2008,09,21,01,34,13.20
2008,09,21,01,35,13.30
2008,09,21,01,36,13.40
2008,09,21,01,37,13.40
2008,09,21,01,38,13.50
2008,09,21,01,39,13.50
2008,09,21,01,40,13.60
2008,09,21,01,41,13.60
2008,09,21,01,42,13.70
2008,09,21,01,43,13.70
2008,09,21,01,44,13.70
2008,09,21,01,45,13.70
2008,09,21,01,46,13.80
2008,09,21,01,47,13.80
2008,09,21,01,48,13.80
2008,09,21,01,49,13.80
2008,09,21,01,50,13.80
2008,09,21,01,51,13.90
2008,09,21,01,52,13.90
2008,09,21,01,53,13.90
2008,09,21,01,54,13.90
2008,09,21,01,55,13.80
2008,09,21,01,56,13.80
2008,09,21,01,57,13.80
2008,09,21,01,58,13.80
2008,09,21,01,59,13.80
2008,09,21,02,00,13.80
2008,09,21,02,01,13.70
2008,09,21,02,02,13.70
2008,09,21,02,03,13.70
2008,09,21,02,04,13.60
2008,09,21,02,05,13.60
2008,09,21,02,06,13.50
2008,09,21,02,07,13.40
2008,09,21,02,08,13.40
2008,09,21,02,09,13.40
2008,09,21,02,10,13.30
2008,09,21,02,11,13.30
2008,09,21,02,12,13.30
2008,09,21,02,13,13.30
2008,09,21,02,14,13.30
2008,09,21,02,15,13.30
2008,09,21,02,16,13.30
2008,09,21,02,17,13.30
2008,09,21,02,18,13.30
2008,09,21,02,19,13.30
2008,09,21,02,20,13.30
2008,09,21,02,21,13.30
2008,09,21,02,22,13.30
2008,09,21,02,23,13.30
2008,09,21,02,24,13.40
2008,09,21,02,25,13.40
2008,09,21,02,26,13.40
2008,09,21,02,27,13.30
2008,09,21,02,28,13.30
2008,09,21,02,29,13.30
2008,09,21,02,30,13.20
2008,09,21,02,31,13.20
2008,09,21,02,32,13.20
2008,09,21,02,33,13.20
2008,09,21,02,34,13.10
2008,09,21,02,35,13.10
2008,09,21,02,36,13.00
2008,09,21,02,37,13.00
2008,09,21,02,38,12.90
2008,09,21,02,39,12.90
2008,09,21,02,40,12.90
2008,09,21,02,41,12.90
2008,09,21,02,42,12.80
2008,09,21,02,43,12.80
2008,09,21,02,44,12.80
2008,09,21,02,45,12.80
2008,09,21,02,46,12.80
2008,09,21,02,47,12.80
2008,09,21,02,48,12.80
2008,09,21,02,49,12.80
2008,09,21,02,50,12.80
2008,09,21,02,51,12.70
2008,09,21,02,52,12.70
2008,09,21,02,53,12.70
2008,09,21,02,54,12.70
2008,09,21,02,55,12.70
2008,09,21,02,56,12.70
2008,09,21,02,57,12.70
2008,09,21,02,58,12.70
2008,09,21,02,59,12.70
2008,09,21,03,00,12.60
2008,09,21,03,01,12.60
2008,09,21,03,02,12.60
2008,09,21,03,03,12.60
2008,09,21,03,04,12.60
2008,09,21,03,05,12.50
2008,09,21,03,06,12.50
2008,09,21,03,07,12.50
2008,09,21,03,08,12.50
2008,09,21,03,09,12.50
2008,09,21,03,10,12.40
2008,09,21,03,11,12.40
2008,09,21,03,12,12.40
2008,09,21,03,13,12.40
2008,09,21,03,14,12.40
2008,09,21,03,15,12.40
2008,09,21,03,16,12.40
2008,09,21,03,17,12.40
2008,09,21,03,18,12.40
2008,09,21,03,19,12.40
2008,09,21,03,20,12.40
2008,09,21,03,21,12.30
2008,09,21,03,22,12.30
2008,09,21,03,23,12.30
2008,09,21,03,24,12.30
2008,09,21,03,25,12.30
2008,09,21,03,26,12.30
2008,09,21,03,27,12.30
2008,09,21,03,28,12.30
2008,09,21,03,29,12.30
2008,09,21,03,30,12.30
2008,09,21,03,31,12.30
2008,09,21,03,32,12.30
2008,09,21,03,33,12.30
2008,09,21,03,34,12.30
2008,09,21,03,35,12.30
2008,09,21,03,36,12.30
2008,09,21,03,37,12.30
2008,09,21,03,38,12.30
2008,09,21,03,39,12.30
2008,09,21,03,40,12.40
2008,09,21,03,41,12.40
2008,09,21,03,42,12.40
2008,09,21,03,43,12.40
2008,09,21,03,44,12.40
2008,09,21,03,45,12.40
2008,09,21,03,46,12.40
2008,09,21,03,47,12.40
2008,09,21,03,48,12.40
2008,09,21,03,49,12.30
2008,09,21,03,50,12.30
2008,09,21,03,51,12.30
2008,09,21,03,52,12.30
2008,09,21,03,53,12.30
2008,09,21,03,54,12.30
2008,09,21,03,55,12.30
2008,09,21,03,56,12.30
2008,09,21,03,57,12.30
2008,09,21,03,58,12.30
2008,09,21,03,59,12.30
2008,09,21,04,00,12.30
2008,09,21,04,01,12.30
2008,09,21,04,02,12.30
2008,09,21,04,03,12.30
2008,09,21,04,04,12.30
2008,09,21,04,05,12.30
2008,09,21,04,06,12.30
2008,09,21,04,07,12.30
2008,09,21,04,08,12.30
2008,09,21,04,09,12.30
2008,09,21,04,10,12.30
2008,09,21,04,11,12.30
2008,09,21,04,12,12.30
2008,09,21,04,13,12.30
2008,09,21,04,14,12.30
2008,09,21,04,15,12.30
2008,09,21,04,16,12.30
2008,09,21,04,17,12.30
2008,09,21,04,18,12.30
2008,09,21,04,19,12.20
2008,09,21,04,20,12.20
2008,09,21,04,21,12.20
2008,09,21,04,22,12.20
2008,09,21,04,23,12.20
2008,09,21,04,24,12.20
2008,09,21,04,25,12.20
2008,09,21,04,26,12.20
2008,09,21,04,27,12.20
2008,09,21,04,28,12.20
2008,09,21,04,29,12.20
2008,09,21,04,30,12.20
2008,09,21,04,31,12.20
2008,09,21,04,32,12.20
2008,09,21,04,33,12.20
2008,09,21,04,34,12.20
2008,09,21,04,35,12.20
2008,09,21,04,36,12.20
2008,09,21,04,37,12.20
2008,09,21,04,38,12.20
2008,09,21,04,39,12.20
2008,09,21,04,40,12.30
2008,09,21,04,41,12.30
2008,09,21,04,42,12.30
2008,09,21,04,43,12.30
2008,09,21,04,44,12.30
2008,09,21,04,45,12.30
2008,09,21,04,46,12.30
2008,09,21,04,47,12.30
2008,09,21,04,48,12.30
2008,09,21,04,49,12.30
2008,09,21,04,50,12.30
2008,09,21,04,51,12.30
2008,09,21,04,52,12.30
2008,09,21,04,53,12.30
2008,09,21,04,54,12.30
2008,09,21,04,55,12.30
2008,09,21,04,56,12.30
2008,09,21,04,57,12.30
2008,09,21,04,58,12.30
2008,09,21,04,59,12.30
2008,09,21,05,00,12.30
2008,09,21,05,01,12.30
2008,09,21,05,02,12.30
2008,09,21,05,03,12.30
2008,09,21,05,04,12.30
2008,09,21,05,05,12.30
2008,09,21,05,06,12.30
2008,09,21,05,07,12.30
2008,09,21,05,08,12.30
2008,09,21,05,09,12.30
2008,09,21,05,10,12.30
2008,09,21,05,11,12.30
2008,09,21,05,12,12.30
2008,09,21,05,13,12.30
2008,09,21,05,14,12.30
2008,09,21,05,15,12.30
2008,09,21,05,16,12.30
2008,09,21,05,17,12.30
2008,09,21,05,18,12.30
2008,09,21,05,19,12.30
2008,09,21,05,20,12.30
2008,09,21,05,21,12.30
2008,09,21,05,22,12.30
2008,09,21,05,23,12.30
2008,09,21,05,24,12.20
2008,09,21,05,25,12.20
2008,09,21,05,26,12.20
2008,09,21,05,27,12.20
2008,09,21,05,28,12.20
2008,09,21,05,29,12.20
2008,09,21,05,30,12.20
2008,09,21,05,31,12.20
2008,09,21,05,32,12.20
2008,09,21,05,33,12.20
2008,09,21,05,34,12.20
2008,09,21,05,35,12.20
2008,09,21,05,36,12.20
2008,09,21,05,37,12.20
2008,09,21,05,38,12.20
2008,09,21,05,39,12.20
2008,09,21,05,40,12.20
2008,09,21,05,41,12.20
2008,09,21,05,42,12.20
2008,09,21,05,43,12.20
2008,09,21,05,44,12.20
2008,09,21,05,45,12.20
2008,09,21,05,46,12.20
2008,09,21,05,47,12.20
2008,09,21,05,48,12.10
2008,09,21,05,49,12.10
2008,09,21,05,50,12.10
2008,09,21,05,51,12.10
2008,09,21,05,52,12.10
2008,09,21,05,53,12.10
2008,09,21,05,54,12.10
2008,09,21,05,55,12.10
2008,09,21,05,56,12.10
2008,09,21,05,57,12.10
2008,09,21,05,58,12.10
2008,09,21,05,59,12.10
2008,09,21,06,00,12.10
2008,09,21,06,01,12.10
2008,09,21,06,02,12.20
2008,09,21,06,03,12.20
2008,09,21,06,04,12.10
2008,09,21,06,05,12.20
2008,09,21,06,06,12.20
2008,09,21,06,07,12.20
2008,09,21,06,08,12.20
2008,09,21,06,09,12.20
2008,09,21,06,10,12.20
2008,09,21,06,11,12.20
2008,09,21,06,12,12.20
2008,09,21,06,13,12.20
2008,09,21,06,14,12.20
2008,09,21,06,15,12.10
2008,09,21,06,16,12.20
2008,09,21,06,17,12.20
2008,09,21,06,18,12.20
2008,09,21,06,19,12.20
2008,09,21,06,20,12.20
2008,09,21,06,21,12.20
2008,09,21,06,22,12.20
2008,09,21,06,23,12.20
2008,09,21,06,24,12.20
2008,09,21,06,25,12.20
2008,09,21,06,26,12.20
2008,09,21,06,27,12.20
2008,09,21,06,28,12.20
2008,09,21,06,29,12.20
2008,09,21,06,30,12.20
2008,09,21,06,31,12.20
2008,09,21,06,32,12.20
2008,09,21,06,33,12.20
2008,09,21,06,34,12.20
2008,09,21,06,35,12.20
2008,09,21,06,36,12.20
2008,09,21,06,37,12.20
2008,09,21,06,38,12.20
2008,09,21,06,39,12.20
2008,09,21,06,40,12.20
2008,09,21,06,41,12.20
2008,09,21,06,42,12.20
2008,09,21,06,43,12.20
2008,09,21,06,44,12.20
2008,09,21,06,45,12.20
2008,09,21,06,46,12.20
2008,09,21,06,47,12.20
2008,09,21,06,48,12.20
2008,09,21,06,49,12.20
2008,09,21,06,50,12.20
2008,09,21,06,51,12.20
2008,09,21,06,52,12.20
2008,09,21,06,53,12.20
2008,09,21,06,54,12.20
2008,09,21,06,55,12.20
2008,09,21,06,56,12.20
2008,09,21,06,57,12.20
2008,09,21,06,58,12.20
2008,09,21,06,59,12.20
2008,09,21,07,00,12.20
2008,09,21,07,01,12.20
2008,09,21,07,02,12.20
2008,09,21,07,03,12.20
2008,09,21,07,04,12.20
2008,09,21,07,05,12.20
2008,09,21,07,06,12.20
2008,09,21,07,07,12.20
2008,09,21,07,08,12.20
2008,09,21,07,09,12.20
2008,09,21,07,10,12.20
2008,09,21,07,11,12.20
2008,09,21,07,12,12.20
2008,09,21,07,13,12.20
2008,09,21,07,14,12.20
2008,09,21,07,15,12.20
2008,09,21,07,16,12.20
2008,09,21,07,17,12.20
2008,09,21,07,18,12.20
2008,09,21,07,19,12.20
2008,09,21,07,20,12.20
2008,09,21,07,21,12.20
2008,09,21,07,22,12.20
2008,09,21,07,23,12.20
2008,09,21,07,24,12.20
2008,09,21,07,25,12.20
2008,09,21,07,26,12.20
2008,09,21,07,27,12.20
2008,09,21,07,28,12.20
2008,09,21,07,29,12.20
2008,09,21,07,30,12.20
2008,09,21,07,31,12.30
2008,09,21,07,32,12.30
2008,09,21,07,33,12.30
2008,09,21,07,34,12.30
2008,09,21,07,35,12.30
2008,09,21,07,36,12.30
2008,09,21,07,37,12.30
2008,09,21,07,38,12.30
2008,09,21,07,39,12.40
2008,09,21,07,40,12.40
2008,09,21,07,41,12.40
2008,09,21,07,42,12.40
2008,09,21,07,43,12.40
2008,09,21,07,44,12.40
2008,09,21,07,45,12.40
2008,09,21,07,46,12.40
2008,09,21,07,47,12.40
2008,09,21,07,48,12.40
2008,09,21,07,49,12.40
2008,09,21,07,50,12.40
2008,09,21,07,51,12.40
2008,09,21,07,52,12.40
2008,09,21,07,53,12.40
2008,09,21,07,54,12.40
2008,09,21,07,55,12.40
2008,09,21,07,56,12.40
2008,09,21,07,57,12.40
2008,09,21,07,58,12.40
2008,09,21,07,59,12.40
2008,09,21,08,00,12.40
2008,09,21,08,01,12.40
2008,09,21,08,02,12.40
2008,09,21,08,03,12.40
2008,09,21,08,04,12.50
2008,09,21,08,05,12.50
2008,09,21,08,06,12.50
2008,09,21,08,07,12.50
2008,09,21,08,08,12.50
2008,09,21,08,09,12.50
2008,09,21,08,10,12.50
2008,09,21,08,11,12.50
2008,09,21,08,12,12.50
2008,09,21,08,13,12.50
2008,09,21,08,14,12.50
2008,09,21,08,15,12.50
2008,09,21,08,16,12.60
2008,09,21,08,17,12.60
2008,09,21,08,18,12.60
2008,09,21,08,19,12.60
2008,09,21,08,20,12.60
2008,09,21,08,21,12.60
2008,09,21,08,22,12.60
2008,09,21,08,23,12.70
2008,09,21,08,24,12.70
2008,09,21,08,25,12.70
2008,09,21,08,26,12.70
2008,09,21,08,27,12.70
2008,09,21,08,28,12.80
2008,09,21,08,29,12.80
2008,09,21,08,30,12.80
2008,09,21,08,31,12.80
2008,09,21,08,32,12.90
2008,09,21,08,33,12.90
2008,09,21,08,34,12.90
2008,09,21,08,35,12.90
2008,09,21,08,36,13.00
2008,09,21,08,37,13.00
2008,09,21,08,38,13.10
2008,09,21,08,39,13.10
2008,09,21,08,40,13.10
2008,09,21,08,41,13.10
2008,09,21,08,42,13.10
2008,09,21,08,43,13.10
2008,09,21,08,44,13.10
2008,09,21,08,45,13.10
2008,09,21,08,46,13.20
2008,09,21,08,47,13.20
2008,09,21,08,48,13.20
2008,09,21,08,49,13.20
2008,09,21,08,50,13.20
2008,09,21,08,51,13.30
2008,09,21,08,52,13.30
2008,09,21,08,53,13.30
2008,09,21,08,54,13.30
2008,09,21,08,55,13.30
2008,09,21,08,56,13.40
2008,09,21,08,57,13.40
2008,09,21,08,58,13.40
2008,09,21,08,59,13.40
2008,09,21,09,00,13.40
2008,09,21,09,01,13.40
2008,09,21,09,02,13.40
2008,09,21,09,03,13.40
2008,09,21,09,04,13.40
2008,09,21,09,05,13.50
2008,09,21,09,06,13.50
2008,09,21,09,07,13.50
2008,09,21,09,08,13.50
2008,09,21,09,09,13.50
2008,09,21,09,10,13.60
2008,09,21,09,11,13.60
2008,09,21,09,12,13.60
2008,09,21,09,13,13.60
2008,09,21,09,14,13.60
2008,09,21,09,15,13.60
2008,09,21,09,16,13.60
2008,09,21,09,17,13.70
2008,09,21,09,18,13.70
2008,09,21,09,19,13.70
2008,09,21,09,20,13.70
2008,09,21,09,21,13.70
2008,09,21,09,22,13.70
2008,09,21,09,23,13.70
2008,09,21,09,24,13.80
2008,09,21,09,25,13.80
2008,09,21,09,26,13.80
2008,09,21,09,27,13.80
2008,09,21,09,28,13.90
2008,09,21,09,29,13.90
2008,09,21,09,30,13.90
2008,09,21,09,31,14.00
2008,09,21,09,32,14.00
2008,09,21,09,33,14.10
2008,09,21,09,34,14.20
2008,09,21,09,35,14.20
2008,09,21,09,36,14.30
2008,09,21,09,37,14.30
2008,09,21,09,38,14.40
2008,09,21,09,39,14.40
2008,09,21,09,40,14.40
2008,09,21,09,41,14.40
2008,09,21,09,42,14.50
2008,09,21,09,43,14.50
2008,09,21,09,44,14.50
2008,09,21,09,45,14.60
2008,09,21,09,46,14.60
2008,09,21,09,47,14.70
2008,09,21,09,48,14.70
2008,09,21,09,49,14.80
2008,09,21,09,50,15.00
2008,09,21,09,51,15.00
2008,09,21,09,52,15.00
2008,09,21,09,53,15.10
2008,09,21,09,54,15.20
2008,09,21,09,55,15.30
2008,09,21,09,56,15.40
2008,09,21,09,57,15.50
2008,09,21,09,58,15.60
2008,09,21,09,59,15.70
2008,09,21,10,00,15.70
2008,09,21,10,01,15.80
2008,09,21,10,02,15.90
2008,09,21,10,03,15.90
2008,09,21,10,04,16.00
2008,09,21,10,05,16.00
2008,09,21,10,06,16.10
2008,09,21,10,07,16.10
2008,09,21,10,08,16.20
2008,09,21,10,09,16.20
2008,09,21,10,10,16.20
2008,09,21,10,11,16.30
2008,09,21,10,12,16.30
2008,09,21,10,13,16.40
2008,09,21,10,14,16.50
2008,09,21,10,15,16.70
2008,09,21,10,16,16.80
2008,09,21,10,17,16.90
2008,09,21,10,18,16.90
2008,09,21,10,19,17.00
2008,09,21,10,20,17.00
2008,09,21,10,21,17.00
2008,09,21,10,22,17.10
2008,09,21,10,23,17.10
2008,09,21,10,24,17.20
2008,09,21,10,25,17.30
2008,09,21,10,26,17.30
2008,09,21,10,27,17.40
2008,09,21,10,28,17.50
2008,09,21,10,29,17.50
2008,09,21,10,30,17.60
2008,09,21,10,31,17.70
2008,09,21,10,32,17.70
2008,09,21,10,33,17.70
2008,09,21,10,34,17.80
2008,09,21,10,35,17.80
2008,09,21,10,36,17.80
2008,09,21,10,37,17.80
2008,09,21,10,38,17.80
2008,09,21,10,39,17.80
2008,09,21,10,40,17.80
2008,09,21,10,41,17.80
2008,09,21,10,42,17.80
2008,09,21,10,43,17.80
2008,09,21,10,44,17.80
2008,09,21,10,45,17.80
2008,09,21,10,46,17.80
2008,09,21,10,47,17.80
2008,09,21,10,48,17.80
2008,09,21,10,49,17.70
2008,09,21,10,50,17.70
2008,09,21,10,51,17.70
2008,09,21,10,52,17.60
2008,09,21,10,53,17.60
2008,09,21,10,54,17.50
2008,09,21,10,55,17.50
2008,09,21,10,56,17.50
2008,09,21,10,57,17.40
2008,09,21,10,58,17.50
2008,09,21,10,59,17.50
2008,09,21,11,00,17.50
2008,09,21,11,01,17.50
2008,09,21,11,02,17.60
2008,09,21,11,03,17.60
2008,09,21,11,04,17.60
2008,09,21,11,05,17.60
2008,09,21,11,06,17.60
2008,09,21,11,07,17.50
2008,09,21,11,08,17.40
2008,09,21,11,09,17.30
2008,09,21,11,10,17.30
2008,09,21,11,11,17.20
2008,09,21,11,12,17.20
2008,09,21,11,13,17.10
2008,09,21,11,14,17.10
2008,09,21,11,15,17.10
2008,09,21,11,16,17.10
2008,09,21,11,17,17.20
2008,09,21,11,18,17.20
2008,09,21,11,19,17.20
2008,09,21,11,20,17.20
2008,09,21,11,21,17.20
2008,09,21,11,22,17.30
2008,09,21,11,23,17.30
2008,09,21,11,24,17.30
2008,09,21,11,25,17.30
2008,09,21,11,26,17.40
2008,09,21,11,27,17.40
2008,09,21,11,28,17.50
2008,09,21,11,29,17.70
2008,09,21,11,30,17.70
2008,09,21,11,31,17.80
2008,09,21,11,32,17.80
2008,09,21,11,33,17.90
2008,09,21,11,34,17.90
2008,09,21,11,35,17.90
2008,09,21,11,36,18.00
2008,09,21,11,37,18.10
2008,09,21,11,38,18.10
2008,09,21,11,39,18.20
2008,09,21,11,40,18.20
2008,09,21,11,41,18.20
2008,09,21,11,42,18.30
2008,09,21,11,43,18.30
2008,09,21,11,44,18.30
2008,09,21,11,45,18.30
2008,09,21,11,46,18.30
2008,09,21,11,47,18.30
2008,09,21,11,48,18.20
2008,09,21,11,49,18.20
2008,09,21,11,50,18.20
2008,09,21,11,51,18.20
2008,09,21,11,52,18.20
2008,09,21,11,53,18.20
2008,09,21,11,54,18.20
2008,09,21,11,55,18.30
2008,09,21,11,56,18.30
2008,09,21,11,57,18.30
2008,09,21,11,58,18.30
2008,09,21,11,59,18.40
2008,09,21,12,00,18.40
2008,09,21,12,01,18.40
2008,09,21,12,02,18.40
2008,09,21,12,03,18.50
2008,09,21,12,04,18.60
2008,09,21,12,05,18.60
2008,09,21,12,06,18.60
2008,09,21,12,07,18.70
2008,09,21,12,08,18.70
2008,09,21,12,09,18.70
2008,09,21,12,10,18.70
2008,09,21,12,11,18.80
2008,09,21,12,12,18.80
2008,09,21,12,13,18.80
2008,09,21,12,14,18.90
2008,09,21,12,15,18.90
2008,09,21,12,16,18.90
2008,09,21,12,17,19.00
2008,09,21,12,18,19.00
2008,09,21,12,19,19.00
2008,09,21,12,20,19.10
2008,09,21,12,21,19.20
2008,09,21,12,22,19.20
2008,09,21,12,23,19.20
2008,09,21,12,24,19.20
2008,09,21,12,25,19.30
2008,09,21,12,26,19.40
2008,09,21,12,27,19.40
2008,09,21,12,28,19.40
2008,09,21,12,29,19.40
2008,09,21,12,30,19.40
2008,09,21,12,31,19.30
2008,09,21,12,32,19.20
2008,09,21,12,33,19.20
2008,09,21,12,34,19.20
2008,09,21,12,35,19.30
2008,09,21,12,36,19.30
2008,09,21,12,37,19.40
2008,09,21,12,38,19.40
2008,09,21,12,39,19.30
2008,09,21,12,40,19.30
2008,09,21,12,41,19.20
2008,09,21,12,42,19.20
2008,09,21,12,43,19.20
2008,09,21,12,44,19.10
2008,09,21,12,45,19.00
2008,09,21,12,46,18.80
2008,09,21,12,47,18.80
2008,09,21,12,48,18.70
2008,09,21,12,49,18.60
2008,09,21,12,50,18.40
2008,09,21,12,51,18.30
2008,09,21,12,52,18.20
2008,09,21,12,53,18.20
2008,09,21,12,54,18.20
2008,09,21,12,55,18.20
2008,09,21,12,56,18.20
2008,09,21,12,57,18.10
2008,09,21,12,58,18.00
2008,09,21,12,59,18.00
2008,09,21,13,00,18.00
2008,09,21,13,01,18.00
2008,09,21,13,02,18.10
2008,09,21,13,03,18.10
2008,09,21,13,04,18.20
2008,09,21,13,05,18.20
2008,09,21,13,06,18.20
2008,09,21,13,07,18.20
2008,09,21,13,08,18.20
2008,09,21,13,09,18.20
2008,09,21,13,10,18.20
2008,09,21,13,11,18.20
2008,09,21,13,12,18.20
2008,09,21,13,13,18.20
2008,09,21,13,14,18.20
2008,09,21,13,15,18.20
2008,09,21,13,16,18.10
2008,09,21,13,17,18.20
2008,09,21,13,18,18.10
2008,09,21,13,19,18.10
2008,09,21,13,20,18.10
2008,09,21,13,21,18.10
2008,09,21,13,22,18.10
2008,09,21,13,23,18.10
2008,09,21,13,24,18.10
2008,09,21,13,25,18.10
2008,09,21,13,26,18.10
2008,09,21,13,27,18.00
2008,09,21,13,28,18.00
2008,09,21,13,29,17.90
2008,09,21,13,30,17.80
2008,09,21,13,31,17.80
2008,09,21,13,32,17.70
2008,09,21,13,33,17.70
2008,09,21,13,34,17.70
2008,09,21,13,35,17.60
2008,09,21,13,36,17.60
2008,09,21,13,37,17.60
2008,09,21,13,38,17.60
2008,09,21,13,39,17.60
2008,09,21,13,40,17.50
2008,09,21,13,41,17.50
2008,09,21,13,42,17.50
2008,09,21,13,43,17.60
2008,09,21,13,44,17.50
2008,09,21,13,45,17.50
2008,09,21,13,46,17.40
2008,09,21,13,47,17.40
2008,09,21,13,48,17.40
2008,09,21,13,49,17.40
2008,09,21,13,50,17.40
2008,09,21,13,51,17.40
2008,09,21,13,52,17.40
2008,09,21,13,53,17.30
2008,09,21,13,54,17.30
2008,09,21,13,55,17.30
2008,09,21,13,56,17.40
2008,09,21,13,57,17.40
2008,09,21,13,58,17.40
2008,09,21,13,59,17.50
2008,09,21,14,00,17.40
2008,09,21,14,01,17.50
2008,09,21,14,02,17.50
2008,09,21,14,03,17.50
2008,09,21,14,04,17.50
2008,09,21,14,05,17.60
2008,09,21,14,06,17.60
2008,09,21,14,07,17.60
2008,09,21,14,08,17.60
2008,09,21,14,09,17.60
2008,09,21,14,10,17.50
2008,09,21,14,11,17.50
2008,09,21,14,12,17.40
2008,09,21,14,13,17.40
2008,09,21,14,14,17.50
2008,09,21,14,15,17.50
2008,09,21,14,16,17.60
2008,09,21,14,17,17.70
2008,09,21,14,18,17.80
2008,09,21,14,19,17.90
2008,09,21,14,20,18.00
2008,09,21,14,21,18.10
2008,09,21,14,22,18.10
2008,09,21,14,23,18.10
2008,09,21,14,24,18.20
2008,09,21,14,25,18.30
2008,09,21,14,26,18.30
2008,09,21,14,27,18.40
2008,09,21,14,28,18.50
2008,09,21,14,29,18.50
2008,09,21,14,30,18.60
2008,09,21,14,31,18.70
2008,09,21,14,32,18.70
2008,09,21,14,33,18.70
2008,09,21,14,34,18.70
2008,09,21,14,35,18.70
2008,09,21,14,36,18.70
2008,09,21,14,37,18.70
2008,09,21,14,38,18.60
2008,09,21,14,39,18.50
2008,09,21,14,40,18.30
2008,09,21,14,41,18.10
2008,09,21,14,42,18.00
2008,09,21,14,43,17.80
2008,09,21,14,44,17.60
2008,09,21,14,45,17.50
2008,09,21,14,46,17.50
2008,09,21,14,47,17.40
2008,09,21,14,48,17.30
2008,09,21,14,49,17.30
2008,09,21,14,50,17.20
2008,09,21,14,51,17.20
2008,09,21,14,52,17.20
2008,09,21,14,53,17.20
2008,09,21,14,54,17.10
2008,09,21,14,55,17.10
2008,09,21,14,56,17.20
2008,09,21,14,57,17.20
2008,09,21,14,58,17.30
2008,09,21,14,59,17.30
2008,09,21,15,00,17.40
2008,09,21,15,01,17.40
2008,09,21,15,02,17.50
2008,09,21,15,03,17.60
2008,09,21,15,04,17.60
2008,09,21,15,05,17.60
2008,09,21,15,06,17.70
2008,09,21,15,07,17.70
2008,09,21,15,08,17.70
2008,09,21,15,09,17.70
2008,09,21,15,10,17.70
2008,09,21,15,11,17.60
2008,09,21,15,12,17.60
2008,09,21,15,13,17.60
2008,09,21,15,14,17.60
2008,09,21,15,15,17.60
2008,09,21,15,16,17.60
2008,09,21,15,17,17.70
2008,09,21,15,18,17.60
2008,09,21,15,19,17.60
2008,09,21,15,20,17.60
2008,09,21,15,21,17.70
2008,09,21,15,22,17.70
2008,09,21,15,23,17.70
2008,09,21,15,24,17.80
2008,09,21,15,25,17.80
2008,09,21,15,26,17.90
2008,09,21,15,27,18.00
2008,09,21,15,28,18.10
2008,09,21,15,29,18.20
2008,09,21,15,30,18.30
2008,09,21,15,31,18.40
2008,09,21,15,32,18.50
2008,09,21,15,33,18.60
2008,09,21,15,34,18.70
2008,09,21,15,35,18.70
2008,09,21,15,36,18.70
2008,09,21,15,37,18.80
2008,09,21,15,38,18.90
2008,09,21,15,39,19.00
2008,09,21,15,40,19.00
2008,09,21,15,41,19.10
2008,09,21,15,42,19.20
2008,09,21,15,43,19.20
2008,09,21,15,44,19.20
2008,09,21,15,45,19.10
2008,09,21,15,46,19.00
2008,09,21,15,47,18.90
2008,09,21,15,48,18.80
2008,09,21,15,49,18.80
2008,09,21,15,50,18.80
2008,09,21,15,51,18.80
2008,09,21,15,52,18.70
2008,09,21,15,53,18.70
2008,09,21,15,54,18.60
2008,09,21,15,55,18.50
2008,09,21,15,56,18.40
2008,09,21,15,57,18.40
2008,09,21,15,58,18.30
2008,09,21,15,59,18.30
2008,09,21,16,00,18.30
2008,09,21,16,01,18.30
2008,09,21,16,02,18.40
2008,09,21,16,03,18.40
2008,09,21,16,04,18.40
2008,09,21,16,05,18.30
2008,09,21,16,06,18.30
2008,09,21,16,07,18.20
2008,09,21,16,08,18.10
2008,09,21,16,09,18.10
2008,09,21,16,10,18.10
2008,09,21,16,11,18.10
2008,09,21,16,12,18.10
2008,09,21,16,13,18.10
2008,09,21,16,14,18.10
2008,09,21,16,15,18.10
2008,09,21,16,16,18.10
2008,09,21,16,17,18.10
2008,09,21,16,18,18.10
2008,09,21,16,19,18.10
2008,09,21,16,20,18.10
2008,09,21,16,21,18.10
2008,09,21,16,22,18.00
2008,09,21,16,23,18.00
2008,09,21,16,24,18.00
2008,09,21,16,25,17.90
2008,09,21,16,26,17.90
2008,09,21,16,27,17.90
2008,09,21,16,28,17.90
2008,09,21,16,29,17.90
2008,09,21,16,30,17.90
2008,09,21,16,31,17.90
2008,09,21,16,32,17.90
2008,09,21,16,33,17.90
2008,09,21,16,34,17.80
2008,09,21,16,35,17.80
2008,09,21,16,36,17.80
2008,09,21,16,37,17.90
2008,09,21,16,38,17.90
2008,09,21,16,39,17.90
2008,09,21,16,40,17.80
2008,09,21,16,41,17.80
2008,09,21,16,42,17.70
2008,09,21,16,43,17.60
2008,09,21,16,44,17.50
2008,09,21,16,45,17.40
2008,09,21,16,46,17.30
2008,09,21,16,47,17.20
2008,09,21,16,48,17.20
2008,09,21,16,49,17.20
2008,09,21,16,50,17.20
2008,09,21,16,51,17.20
2008,09,21,16,52,17.20
2008,09,21,16,53,17.20
2008,09,21,16,54,17.20
2008,09,21,16,55,17.20
2008,09,21,16,56,17.20
2008,09,21,16,57,17.10
2008,09,21,16,58,17.10
2008,09,21,16,59,17.10
2008,09,21,17,00,17.10
2008,09,21,17,01,17.10
2008,09,21,17,02,17.10
2008,09,21,17,03,17.10
2008,09,21,17,04,17.10
2008,09,21,17,05,17.10
2008,09,21,17,06,17.10
2008,09,21,17,07,17.10
2008,09,21,17,08,17.10
2008,09,21,17,09,17.10
2008,09,21,17,10,17.10
2008,09,21,17,11,17.00
2008,09,21,17,12,17.00
2008,09,21,17,13,17.00
2008,09,21,17,14,17.00
2008,09,21,17,15,17.00
2008,09,21,17,16,17.00
2008,09,21,17,17,17.00
2008,09,21,17,18,17.00
2008,09,21,17,19,17.00